Time,TemperatureF,DewpointF,PressureIn,WindDirection,WindDirectionDegrees,WindSpeedMPH,WindSpeedGustMPH,Humidity,HourlyPrecipIn,Conditions,Clouds,dailyrainin,SolarRadiationWatts/m^2,SoftwareType,DateUTC
2013-07-26 00:02:00,57.0,46.0,-100.00,NNW,344,1.0,4.0,67,0.00,,,0.13,0.000000,,2013-07-26 06:02:00,
2013-07-26 00:12:00,57.0,46.0,-100.00,NNW,344,1.0,4.0,67,0.00,,,0.13,0.000000,,2013-07-26 06:12:00,
2013-07-26 00:22:00,57.0,46.0,-100.00,NNW,344,1.0,4.0,67,0.00,,,0.13,0.000000,,2013-07-26 06:22:00,
2013-07-26 00:43:00,54.0,47.0,-100.00,NNE,32,0.0,3.0,77,0.00,,,0.13,0.000000,,2013-07-26 06:43:00,
2013-07-26 00:52:00,54.0,47.0,-100.00,NNE,32,0.0,3.0,77,0.00,,,0.13,0.000000,,2013-07-26 06:52:00,
2013-07-26 01:02:00,54.0,47.0,-100.00,NNE,32,0.0,3.0,77,0.00,,,0.13,0.000000,,2013-07-26 07:02:00,
2013-07-26 01:12:00,54.0,47.0,-100.00,NNE,32,0.0,3.0,77,0.00,,,0.13,0.000000,,2013-07-26 07:12:00,
2013-07-26 01:22:00,54.0,47.0,-100.00,NNE,32,0.0,3.0,77,0.00,,,0.13,0.000000,,2013-07-26 07:22:00,
2013-07-26 01:43:00,52.0,47.0,-100.00,ESE,104,0.0,0.0,82,0.00,,,0.13,0.000000,,2013-07-26 07:43:00,
2013-07-26 01:53:00,52.0,47.0,-100.00,ESE,104,0.0,0.0,82,0.00,,,0.13,0.000000,,2013-07-26 07:53:00,
2013-07-26 02:02:00,52.0,47.0,-100.00,ESE,104,0.0,0.0,82,0.00,,,0.13,0.000000,,2013-07-26 08:02:00,
2013-07-26 02:12:00,52.0,47.0,-100.00,ESE,104,0.0,0.0,82,0.00,,,0.13,0.000000,,2013-07-26 08:12:00,
2013-07-26 02:22:00,52.0,47.0,-100.00,ESE,104,0.0,0.0,82,0.00,,,0.13,0.000000,,2013-07-26 08:22:00,
2013-07-26 02:44:00,50.0,47.0,-100.00,NNW,341,0.0,0.0,90,0.00,,,0.13,0.000000,,2013-07-26 08:44:00,
2013-07-26 02:52:00,50.0,47.0,-100.00,NNW,341,0.0,0.0,90,0.00,,,0.13,0.000000,,2013-07-26 08:52:00,
2013-07-26 03:02:00,50.0,47.0,-100.00,NNW,341,0.0,0.0,90,0.00,,,0.13,0.000000,,2013-07-26 09:02:00,
2013-07-26 03:12:00,50.0,47.0,-100.00,NNW,341,0.0,0.0,90,0.00,,,0.13,0.000000,,2013-07-26 09:12:00,
2013-07-26 03:22:00,50.0,47.0,-100.00,NNW,341,0.0,0.0,90,0.00,,,0.13,0.000000,,2013-07-26 09:22:00,
2013-07-26 03:52:00,49.0,47.0,-100.00,East,91,2.0,5.0,94,0.00,,,-99.99,0.000000,,2013-07-26 09:52:00,
2013-07-26 04:02:00,49.0,47.0,-100.00,East,91,2.0,5.0,94,0.00,,,-99.99,0.000000,,2013-07-26 10:02:00,
2013-07-26 04:12:00,49.0,47.0,-100.00,East,91,2.0,5.0,94,0.00,,,-99.99,0.000000,,2013-07-26 10:12:00,
2013-07-26 04:22:00,49.0,47.0,-100.00,East,91,2.0,5.0,94,0.00,,,-99.99,0.000000,,2013-07-26 10:22:00,
2013-07-26 04:43:00,48.0,47.0,-100.00,NNE,31,3.0,8.0,98,0.00,,,0.13,0.000000,,2013-07-26 10:43:00,
2013-07-26 04:52:00,48.0,47.0,-100.00,NNE,31,3.0,8.0,98,0.00,,,0.13,0.000000,,2013-07-26 10:52:00,
2013-07-26 05:02:00,48.0,47.0,-100.00,NNE,31,3.0,8.0,98,0.00,,,0.13,0.000000,,2013-07-26 11:02:00,
2013-07-26 05:12:00,48.0,47.0,-100.00,NNE,31,3.0,8.0,98,0.00,,,0.13,0.000000,,2013-07-26 11:12:00,
2013-07-26 05:22:00,48.0,47.0,-100.00,NNE,31,3.0,8.0,98,0.00,,,0.13,0.000000,,2013-07-26 11:22:00,
2013-07-26 05:43:00,50.0,48.0,-100.00,West,276,4.0,12.0,94,0.00,,,0.13,0.000000,,2013-07-26 11:43:00,
2013-07-26 05:52:00,50.0,48.0,-100.00,West,276,4.0,12.0,94,0.00,,,0.13,0.000000,,2013-07-26 11:52:00,
2013-07-26 06:02:00,50.0,48.0,-100.00,West,276,4.0,12.0,94,0.00,,,0.13,0.000000,,2013-07-26 12:02:00,
2013-07-26 06:12:00,50.0,48.0,-100.00,West,276,4.0,12.0,94,0.00,,,0.13,0.000000,,2013-07-26 12:12:00,
2013-07-26 06:22:00,50.0,48.0,-100.00,West,276,4.0,12.0,94,0.00,,,0.13,0.000000,,2013-07-26 12:22:00,
2013-07-26 06:43:00,47.0,47.0,-100.00,SSW,208,3.0,14.0,99,0.23,,,0.33,0.000000,,2013-07-26 12:43:00,
2013-07-26 06:53:00,47.0,47.0,-100.00,SSW,208,3.0,14.0,99,0.23,,,0.33,0.000000,,2013-07-26 12:53:00,
2013-07-26 07:02:00,47.0,47.0,-100.00,SSW,208,3.0,14.0,99,0.23,,,0.33,0.000000,,2013-07-26 13:02:00,
2013-07-26 07:12:00,47.0,47.0,-100.00,SSW,208,3.0,14.0,99,0.23,,,0.33,0.000000,,2013-07-26 13:12:00,
2013-07-26 07:22:00,47.0,47.0,-100.00,SSW,208,3.0,14.0,99,0.23,,,0.33,0.000000,,2013-07-26 13:22:00,
2013-07-26 07:43:00,50.0,47.0,-100.00,East,81,3.0,11.0,89,0.01,,,-99.99,9.000000,,2013-07-26 13:43:00,
2013-07-26 07:53:00,50.0,47.0,-100.00,East,81,3.0,11.0,89,0.01,,,-99.99,9.000000,,2013-07-26 13:53:00,
2013-07-26 08:02:00,50.0,47.0,-100.00,East,81,3.0,11.0,89,0.01,,,-99.99,9.000000,,2013-07-26 14:02:00,
2013-07-26 08:12:00,50.0,47.0,-100.00,East,81,3.0,11.0,89,0.01,,,-99.99,9.000000,,2013-07-26 14:12:00,
2013-07-26 08:22:00,50.0,47.0,-100.00,East,81,3.0,11.0,89,0.01,,,-99.99,9.000000,,2013-07-26 14:22:00,
2013-07-26 08:43:00,56.0,51.0,-100.00,NNW,346,3.0,6.0,82,0.00,,,0.24,311.000000,,2013-07-26 14:43:00,
2013-07-26 08:53:00,56.0,51.0,-100.00,NNW,346,3.0,6.0,82,0.00,,,0.24,311.000000,,2013-07-26 14:53:00,
2013-07-26 09:02:00,56.0,51.0,-100.00,NNW,346,3.0,6.0,82,0.00,,,0.24,311.000000,,2013-07-26 15:02:00,
2013-07-26 09:12:00,56.0,51.0,-100.00,NNW,346,3.0,6.0,82,0.00,,,0.24,311.000000,,2013-07-26 15:12:00,
2013-07-26 09:22:00,56.0,51.0,-100.00,NNW,346,3.0,6.0,82,0.00,,,0.24,311.000000,,2013-07-26 15:22:00,
2013-07-26 09:53:00,51.0,49.0,-100.00,ESE,121,3.0,7.0,93,0.00,,,0.24,248.000000,,2013-07-26 15:53:00,
2013-07-26 10:02:00,51.0,49.0,-100.00,ESE,121,3.0,7.0,93,0.00,,,0.24,248.000000,,2013-07-26 16:02:00,
2013-07-26 10:14:00,51.0,49.0,-100.00,ESE,121,3.0,7.0,93,0.00,,,0.24,248.000000,,2013-07-26 16:14:00,
2013-07-26 10:22:00,51.0,49.0,-100.00,ESE,121,3.0,7.0,93,0.00,,,0.24,248.000000,,2013-07-26 16:22:00,
2013-07-26 10:43:00,58.0,52.0,-100.00,SSE,153,3.0,6.0,81,0.00,,,0.24,592.000000,,2013-07-26 16:43:00,
2013-07-26 10:54:00,58.0,52.0,-100.00,SSE,153,3.0,6.0,81,0.00,,,0.24,592.000000,,2013-07-26 16:54:00,
2013-07-26 11:02:00,58.0,52.0,-100.00,SSE,153,3.0,6.0,81,0.00,,,0.24,592.000000,,2013-07-26 17:02:00,
2013-07-26 11:12:00,58.0,52.0,-100.00,SSE,153,3.0,6.0,81,0.00,,,0.24,592.000000,,2013-07-26 17:12:00,
2013-07-26 11:22:00,58.0,52.0,-100.00,SSE,153,3.0,6.0,81,0.00,,,0.24,592.000000,,2013-07-26 17:22:00,
2013-07-26 11:43:00,63.0,54.0,-100.00,ESE,111,4.0,7.0,72,0.00,,,0.24,789.000000,,2013-07-26 17:43:00,
2013-07-26 11:53:00,63.0,54.0,-100.00,ESE,111,4.0,7.0,72,0.00,,,0.24,789.000000,,2013-07-26 17:53:00,
2013-07-26 12:02:00,63.0,54.0,-100.00,ESE,111,4.0,7.0,72,0.00,,,0.24,789.000000,,2013-07-26 18:02:00,
2013-07-26 12:12:00,63.0,54.0,-100.00,ESE,111,4.0,7.0,72,0.00,,,0.24,789.000000,,2013-07-26 18:12:00,
2013-07-26 12:22:00,63.0,54.0,-100.00,ESE,111,4.0,7.0,72,0.00,,,0.24,789.000000,,2013-07-26 18:22:00,
2013-07-26 12:44:00,66.0,54.0,-100.00,SSE,160,4.0,7.0,65,0.00,,,0.24,1022.000000,,2013-07-26 18:44:00,
2013-07-26 12:52:00,66.0,54.0,-100.00,SSE,160,4.0,7.0,65,0.00,,,0.24,1022.000000,,2013-07-26 18:52:00,
2013-07-26 13:02:00,66.0,54.0,-100.00,SSE,160,4.0,7.0,65,0.00,,,0.24,1022.000000,,2013-07-26 19:02:00,
2013-07-26 13:12:00,66.0,54.0,-100.00,SSE,160,4.0,7.0,65,0.00,,,0.24,1022.000000,,2013-07-26 19:12:00,
2013-07-26 13:22:00,66.0,54.0,-100.00,SSE,160,4.0,7.0,65,0.00,,,0.24,1022.000000,,2013-07-26 19:22:00,
2013-07-26 13:43:00,64.0,54.0,-100.00,ESE,117,4.0,9.0,69,0.00,,,0.24,488.000000,,2013-07-26 19:43:00,
2013-07-26 13:52:00,64.0,54.0,-100.00,ESE,117,4.0,9.0,69,0.00,,,0.24,488.000000,,2013-07-26 19:52:00,
2013-07-26 14:02:00,64.0,54.0,-100.00,ESE,117,4.0,9.0,69,0.00,,,0.24,488.000000,,2013-07-26 20:02:00,
2013-07-26 14:12:00,64.0,54.0,-100.00,ESE,117,4.0,9.0,69,0.00,,,0.24,488.000000,,2013-07-26 20:12:00,
2013-07-26 14:22:00,64.0,54.0,-100.00,ESE,117,4.0,9.0,69,0.00,,,0.24,488.000000,,2013-07-26 20:22:00,
2013-07-26 14:43:00,65.0,53.0,-100.00,East,92,5.0,9.0,66,0.00,,,0.24,520.000000,,2013-07-26 20:43:00,
2013-07-26 14:53:00,65.0,53.0,-100.00,East,92,5.0,9.0,66,0.00,,,0.24,520.000000,,2013-07-26 20:53:00,
2013-07-26 15:02:00,65.0,53.0,-100.00,East,92,5.0,9.0,66,0.00,,,0.24,520.000000,,2013-07-26 21:02:00,
2013-07-26 15:12:00,65.0,53.0,-100.00,East,92,5.0,9.0,66,0.00,,,0.24,520.000000,,2013-07-26 21:12:00,
2013-07-26 15:22:00,65.0,53.0,-100.00,East,92,5.0,9.0,66,0.00,,,0.24,520.000000,,2013-07-26 21:22:00,
2013-07-26 15:43:00,65.0,53.0,-100.00,ENE,77,5.0,11.0,64,0.00,,,0.24,919.000000,,2013-07-26 21:43:00,
2013-07-26 15:53:00,65.0,53.0,-100.00,ENE,77,5.0,11.0,64,0.00,,,0.24,919.000000,,2013-07-26 21:53:00,
2013-07-26 16:02:00,65.0,53.0,-100.00,ENE,77,5.0,11.0,64,0.00,,,0.24,919.000000,,2013-07-26 22:02:00,
2013-07-26 16:12:00,65.0,53.0,-100.00,ENE,77,5.0,11.0,64,0.00,,,0.24,919.000000,,2013-07-26 22:12:00,
2013-07-26 16:22:00,65.0,53.0,-100.00,ENE,77,5.0,11.0,64,0.00,,,0.24,919.000000,,2013-07-26 22:22:00,
2013-07-26 16:43:00,66.0,54.0,-100.00,SE,124,3.0,9.0,66,0.00,,,0.24,716.000000,,2013-07-26 22:43:00,
2013-07-26 16:53:00,66.0,54.0,-100.00,SE,124,3.0,9.0,66,0.00,,,0.24,716.000000,,2013-07-26 22:53:00,
2013-07-26 17:02:00,66.0,54.0,-100.00,SE,124,3.0,9.0,66,0.00,,,0.24,716.000000,,2013-07-26 23:02:00,
2013-07-26 17:12:00,66.0,54.0,-100.00,SE,124,3.0,9.0,66,0.00,,,0.24,716.000000,,2013-07-26 23:12:00,
2013-07-26 17:22:00,66.0,54.0,-100.00,SE,124,3.0,9.0,66,0.00,,,0.24,716.000000,,2013-07-26 23:22:00,
2013-07-26 17:43:00,63.0,51.0,-100.00,SSE,150,4.0,9.0,66,0.00,,,0.24,508.000000,,2013-07-26 23:43:00,
2013-07-26 17:53:00,63.0,51.0,-100.00,SSE,150,4.0,9.0,66,0.00,,,0.24,508.000000,,2013-07-26 23:53:00,
2013-07-26 18:02:00,63.0,51.0,-100.00,SSE,150,4.0,9.0,66,0.00,,,0.24,508.000000,,2013-07-27 00:02:00,
2013-07-26 18:12:00,63.0,51.0,-100.00,SSE,150,4.0,9.0,66,0.00,,,0.24,508.000000,,2013-07-27 00:12:00,
2013-07-26 18:22:00,63.0,51.0,-100.00,SSE,150,4.0,9.0,66,0.00,,,0.24,508.000000,,2013-07-27 00:22:00,
2013-07-26 18:53:00,65.0,52.0,-100.00,East,92,4.0,9.0,62,0.00,,,0.24,430.000000,,2013-07-27 00:53:00,
2013-07-26 19:02:00,65.0,52.0,-100.00,East,92,4.0,9.0,62,0.00,,,0.24,430.000000,,2013-07-27 01:02:00,
2013-07-26 19:12:00,65.0,52.0,-100.00,East,92,4.0,9.0,62,0.00,,,0.24,430.000000,,2013-07-27 01:12:00,
2013-07-26 19:22:00,65.0,52.0,-100.00,East,92,4.0,9.0,62,0.00,,,0.24,430.000000,,2013-07-27 01:22:00,
2013-07-26 19:44:00,58.0,48.0,-100.00,ESE,116,3.0,10.0,69,0.00,,,0.24,52.000000,,2013-07-27 01:44:00,
2013-07-26 19:53:00,58.0,48.0,-100.00,ESE,116,3.0,10.0,69,0.00,,,0.24,52.000000,,2013-07-27 01:53:00,
2013-07-26 20:02:00,58.0,48.0,-100.00,ESE,116,3.0,10.0,69,0.00,,,0.24,52.000000,,2013-07-27 02:02:00,
2013-07-26 20:12:00,58.0,48.0,-100.00,ESE,116,3.0,10.0,69,0.00,,,0.24,52.000000,,2013-07-27 02:12:00,
2013-07-26 20:22:00,58.0,48.0,-100.00,ESE,116,3.0,10.0,69,0.00,,,0.24,52.000000,,2013-07-27 02:22:00,
2013-07-26 20:43:00,55.0,47.0,-100.00,SE,131,2.0,7.0,74,0.00,,,-99.99,16.000000,,2013-07-27 02:43:00,
2013-07-26 20:53:00,55.0,47.0,-100.00,SE,131,2.0,7.0,74,0.00,,,-99.99,16.000000,,2013-07-27 02:53:00,
2013-07-26 21:03:00,55.0,47.0,-100.00,SE,131,2.0,7.0,74,0.00,,,-99.99,16.000000,,2013-07-27 03:03:00,
2013-07-26 21:12:00,55.0,47.0,-100.00,SE,131,2.0,7.0,74,0.00,,,-99.99,16.000000,,2013-07-27 03:12:00,
2013-07-26 21:22:00,55.0,47.0,-100.00,SE,131,2.0,7.0,74,0.00,,,-99.99,16.000000,,2013-07-27 03:22:00,
2013-07-26 21:44:00,52.0,45.0,-100.00,SE,129,2.0,5.0,77,0.00,,,0.24,1.000000,,2013-07-27 03:44:00,
2013-07-26 21:52:00,52.0,45.0,-100.00,SE,129,2.0,5.0,77,0.00,,,0.24,1.000000,,2013-07-27 03:52:00,
2013-07-26 22:02:00,52.0,45.0,-100.00,SE,129,2.0,5.0,77,0.00,,,0.24,1.000000,,2013-07-27 04:02:00,
2013-07-26 22:12:00,52.0,45.0,-100.00,SE,129,2.0,5.0,77,0.00,,,0.24,1.000000,,2013-07-27 04:12:00,
2013-07-26 22:22:00,52.0,45.0,-100.00,SE,129,2.0,5.0,77,0.00,,,0.24,1.000000,,2013-07-27 04:22:00,
2013-07-26 22:43:00,51.0,42.0,-100.00,ESE,121,2.0,6.0,72,0.00,,,0.24,0.000000,,2013-07-27 04:43:00,
2013-07-26 22:53:00,51.0,42.0,-100.00,ESE,121,2.0,6.0,72,0.00,,,0.24,0.000000,,2013-07-27 04:53:00,
2013-07-26 23:02:00,51.0,42.0,-100.00,ESE,121,2.0,6.0,72,0.00,,,0.24,0.000000,,2013-07-27 05:02:00,
2013-07-26 23:12:00,51.0,42.0,-100.00,ESE,121,2.0,6.0,72,0.00,,,0.24,0.000000,,2013-07-27 05:12:00,
2013-07-26 23:22:00,51.0,42.0,-100.00,ESE,121,2.0,6.0,72,0.00,,,0.24,0.000000,,2013-07-27 05:22:00,
2013-07-26 23:43:00,49.0,42.0,-100.00,ESE,108,3.0,7.0,77,0.00,,,0.24,0.000000,,2013-07-27 05:43:00,
2013-07-26 23:52:00,49.0,42.0,-100.00,ESE,108,3.0,7.0,77,0.00,,,0.24,0.000000,,2013-07-27 05:52:00,